Hourly Data Report for July 12, 2021

HALIFAX STANFIELD INT'L A
NOVA SCOTIA
Current Station Operator: NAVCAN

44°52'52.000" N
63°30'31.000" W
145.40 m
8202251
71395
YHZ

Download Data

Hourly Data (July 2021)
Hourly Data Report for July 12, 2021
TIME
LST
Temp Definition
°C
Dew Point Definition
°C
Rel Hum Definition
%
Precip. Amount Definition
mm

Wind Dir Definition
10's deg

Wind Spd Definition
km/h
Visibility Definition
km
Stn Press Definition
kPa
Hmdx Definition


Wind Chill Definition


Weather Definition


00:00 17.4 15.8 90   32 12 24.1 100.09     LegendNANA
01:00 17.6 13.6 77   29 8 24.1 100.09     LegendNANA
02:00 17.6 12.8 73   26 5 24.1 100.12     Cloudy
03:00 17.6 12.2 70   27 10 24.1 100.11     LegendNANA
04:00 17.8 11.7 67   29 14 24.1 100.15     LegendNANA
05:00 17.6 12.3 71   30 9 24.1 100.18     Cloudy
06:00 17.7 12.8 73   33 14 24.1 100.25     LegendNANA
07:00 17.8 13.2 74   34 14 24.1 100.29     LegendNANA
08:00 18.2 14.4 79   34 15 24.1 100.32     Cloudy
09:00 19.9 15.2 74   1 21 24.1 100.36     LegendNANA
10:00 20.8 15.0 69   34 19 24.1 100.38 25   LegendNANA
11:00 21.4 15.2 67   2 20 24.1 100.42 25   Cloudy
12:00 21.4 15.2 68   2 19 24.1 100.47 25   LegendNANA
13:00 22.0 13.2 57   1 21 24.1 100.53 25   LegendNANA
14:00 22.4 13.8 58   2 14 24.1 100.56 26   Cloudy
15:00 23.0 9.6 42   35 18 24.1 100.57     LegendNANA
16:00 23.5 9.0 39   2 15 24.1 100.60     LegendNANA
17:00 23.2 8.6 39   2 11 24.1 100.64     Mostly Cloudy
18:00 22.4 9.7 44   36 14 24.1 100.70     LegendNANA
19:00 20.8 9.1 47   2 10 24.1 100.74     LegendNANA
20:00 19.2 9.4 53   6 8 24.1 100.79     Mainly Clear
21:00 16.8 11.0 68   6 13 24.1 100.86     LegendNANA
22:00 15.9 10.9 72   9 13 24.1 100.89     LegendNANA
23:00 15.1 10.3 73   11 11 24.1 100.92     Mostly Cloudy

Notes on Data Quality.

Legend

  • E = Estimated
  • M = Missing
  • NA = Not Available*
  • [empty] = Indicates an unobserved value
Date modified: